EW1898 Weather Reports


time (UTC)temp
F
wind
direction
speed
knots
gust
knots
rain 1hr
in
rain 24hr
in
rain mn
in
humidity
%
barometer
mb
20260505124503 63 277 0.0 4.3 0.00 0.00 0.00 66 1009.0
20260505123103 61 249 0.9 4.3 0.00 0.00 0.00 67 1009.0
20260505121624 60 284 0.0 4.3 0.00 0.00 0.00 69 1009.1
20260505120053 60 303 0.0 2.6 0.00 0.00 0.00 72 1009.1
20260505114548 58 293 0.0 5.2 0.00 0.00 0.00 73 1009.2
20260505113048 57 284 0.0 0.9 0.00 0.00 0.00 75 1008.9
20260505111547 55 291 0.0 0.9 0.00 0.00 0.00 77 1008.9
20260505101540 53 273 0.0 0.0 0.00 0.00 0.00 80 1008.9
20260505100043 52 271 0.0 0.0 0.00 0.00 0.00 80 1008.9
20260505094533 52 271 0.0 0.0 0.00 0.00 0.00 79 1008.9
20260505093034 52 271 0.0 0.0 0.00 0.00 0.00 79 1009.0
20260505091536 52 205 0.0 0.9 0.00 0.00 0.00 79 1008.9
20260505090030 51 165 0.0 0.9 0.00 0.00 0.00 79 1008.9
20260505084528 51 165 0.0 0.0 0.00 0.00 0.00 79 1009.0
20260505083035 51 165 0.0 0.9 0.00 0.00 0.00 79 1009.1
20260505081529 51 165 0.0 0.9 0.00 0.00 0.00 78 1009.1
20260505080036 51 165 0.0 0.9 0.00 0.00 0.00 78 1009.0
20260505074523 51 165 0.0 0.9 0.00 0.00 0.00 77 1009.3
20260505073025 51 352 0.0 1.7 0.00 0.00 0.00 77 1009.3
20260505071532 51 341 0.0 1.7 0.00 0.00 0.00 78 1009.3
20260505070020 51 342 0.0 0.9 0.00 0.00 0.00 77 1009.5
20260505064518 51 339 0.0 1.7 0.00 0.00 0.00 77 1009.4
20260505063026 52 338 0.0 0.9 0.00 0.00 0.00 76 1009.5
20260505061515 52 338 0.0 0.9 0.00 0.00 0.00 74 1009.5
20260505060012 52 338 0.0 0.0 0.00 0.00 0.00 73 1009.6
20260505054511 52 338 0.0 0.0 0.00 0.00 0.00 73 1009.7
20260505053007 53 338 0.0 0.9 0.00 0.00 0.00 71 1009.8
20260505051506 53 338 0.0 0.9 0.00 0.00 0.00 70 1009.7
20260505041609 55 201 0.0 0.9 0.00 0.00 0.00 66 1009.7
20260505040054 55 154 0.0 0.9 0.00 0.00 0.00 65 1009.6
20260505034553 55 149 0.0 0.9 0.00 0.00 0.00 63 1009.5
20260505033152 56 89 0.0 0.9 0.00 0.00 0.00 61 1009.4
20260505031554 57 89 0.0 0.9 0.00 0.00 0.00 60 1009.5
20260505024556 58 1 0.0 0.9 0.00 0.00 0.00 58 1009.4
20260505023050 58 5 0.0 2.6 0.00 0.00 0.00 57 1009.4
20260505021555 59 261 0.0 1.7 0.00 0.00 0.00 56 1009.6
20260505014549 60 243 0.0 3.5 0.00 0.00 0.00 53 1009.3
20260505013049 60 270 0.0 2.6 0.00 0.00 0.00 52 1009.2
20260505011549 61 321 0.0 4.3 0.00 0.00 0.00 51 1008.9
20260505010105 62 314 0.0 3.5 0.00 0.00 0.00 50 1008.6
20260505004547 62 267 0.0 2.6 0.00 0.00 0.00 49 1008.4
20260505003050 63 61 0.0 1.7 0.00 0.00 0.00 47 1007.9
20260505001546 64 357 0.9 6.1 0.00 0.00 0.00 45 1007.5
20260505000053 65 264 0.0 3.5 0.00 0.00 0.00 41 1007.2
20260504234545 67 303 0.0 0.9 0.00 0.00 0.00 37 1006.8
20260504233051 69 312 0.9 5.2 0.00 0.00 0.00 34 1006.6
20260504231543 70 295 0.0 3.5 0.00 0.00 0.00 34 1006.4
20260504224557 71 284 0.9 6.1 0.00 0.00 0.00 32 1006.1
20260504223041 71 325 1.7 5.2 0.00 0.00 0.00 31 1006.0
20260504221539 72 286 2.6 7.0 0.00 0.00 0.00 31 1005.9
20260504220043 72 303 1.7 8.7 0.00 0.00 0.00 31 1005.9
20260504214543 71 289 1.7 3.5 0.00 0.00 0.00 33 1006.0
20260504213036 72 275 1.7 5.2 0.00 0.00 0.00 31 1005.9
20260504211537 73 306 1.7 7.0 0.00 0.00 0.00 30 1006.0
20260504210043 72 326 4.3 10.4 0.00 0.00 0.00 30 1006.1
20260504204531 72 299 1.7 14.8 0.00 0.00 0.00 31 1005.9
20260504203031 73 297 1.7 8.7 0.00 0.00 0.00 30 1005.9
20260504201529 72 329 3.5 12.2 0.00 0.00 0.00 29 1006.1
20260504200033 72 275 2.6 11.3 0.00 0.00 0.00 29 1006.0
20260504194526 73 300 3.5 10.4 0.00 0.00 0.00 29 1006.1
20260504193023 72 285 0.9 12.2 0.00 0.00 0.00 29 1006.1
20260504191521 71 289 4.3 11.3 0.00 0.00 0.00 29 1006.2
20260504190020 71 344 4.3 11.3 0.00 0.00 0.00 30 1006.3
20260504184525 71 314 3.5 9.6 0.00 0.00 0.00 28 1006.7
20260504183020 69 340 2.6 10.4 0.00 0.00 0.00 30 1006.8
20260504181510 69 313 2.6 13.0 0.00 0.00 0.00 29 1006.9
20260504180008 69 269 2.6 15.6 0.00 0.00 0.00 29 1006.8
20260504174506 68 333 4.3 13.0 0.00 0.00 0.00 31 1006.8
20260504173004 68 332 5.2 11.3 0.00 0.00 0.00 30 1007.1
20260504171502 68 295 4.3 11.3 0.00 0.00 0.00 33 1007.1